Regional Weather Roundup
Issued by NWS

Home | Current Version | Previous Version | Text Only | Print | Product List | Glossary On
Versions: 1 2 3 4 5 6 7 8 9 10 11 12 13 14 15 16 17 18 19 20 21 22 23 24 25 26 27 28 29 30 31 32 33 34 35 36 37 38 39 40 41 42 43 44 45 46 47 48 49 50
000
ASPQ40 PGUM 020114
RWRPQ
WEATHER ROUNDUP FOR THE MARIANAS AND MICRONESIA
NATIONAL WEATHER SERVICE TIYAN GU
1100 AM CHST THU JUL 02 2015

GUZ001>004-020200-
MARIANA ISLANDS-

CITY           SKY/WX    TMP DP  RH WIND       PRES   REMARKS
GUAM AIRPORT   MOSUNNY   84  79  84 N10       29.81F HX  96
ANDERSEN AFB   DRIZZLE   82  75  78 NE10      29.82F
ROTA AIRPORT   NOT AVBL
TINIAN AP      NOT AVBL
SAIPAN AP      MOSUNNY   86  75  70 NE15G22   29.80S HX  95

$$

PMZ161-020200-
REPUBLIC OF PALAU-

CITY           SKY/WX    TMP DP  RH WIND       PRES   REMARKS
KOROR AP       PTSUNNY   84  75  74 SW9G18    29.85R HX  92
KOROR WSO      CLOUDY    86  75  70 W18       29.85R HX  95

$$

PMZ171>174-020200-
FEDERATED STATES OF MICRONESIA-

CITY           SKY/WX    TMP DP  RH WIND       PRES   REMARKS
YAP AIRPORT    CLOUDY    82  77  83 W10       29.82R HX  91
CHUUK AP       CLOUDY    82  77  83 SW14G25   29.62F HX  91
POHNPEI AP     SHOWER    79  77  94 W17       29.74S VSB 1
POHNPEI WSO    LGT RAIN  77  75  94 S5        29.80R
KOSRAE AP      NOT AVBL

$$

PMZ181-020200-
REPUBLIC OF THE MARSHALL ISLANDS-

CITY           SKY/WX    TMP DP  RH WIND       PRES   REMARKS
KWAJALEIN AP   PTSUNNY   81  77  89 E14       29.74F
MAJURO AP      NOT AVBL
MAJURO WSO     PTSUNNY   82  79  89 W15       29.68  HX  93

$$




USA.gov is the U.S. government's official web portal to all federal, state and local government web resources and services.